Weather History for Ellsworth AFB, SD

Change the Weather History Date:

Saturday, October 6, 2012

  Actual Average Record
Temperature  
Mean Temperature 37 °F -  
Max Temperature 44 °F 63 °F 82 °F (2006)
Min Temperature 27 °F 39 °F 19 °F (2000)
Degree Days  
Heating Degree Days 28    
Moisture  
Dew Point 19 °F    
Average Humidity 55    
Maximum Humidity 75    
Minimum Humidity 29    
Precipitation  
Precipitation 0.00 in - - ()
Sea Level Pressure  
Sea Level Pressure 30.40 in    
Wind  
Wind Speed 8 mph (NNW)    
Max Wind Speed 13 mph    
Max Gust Speed 16 mph    
Visibility 10 miles    
Events      
Averages and records for this station are not official NWS values.
T = Trace of Precipitation, MM = Missing Value Source: NWS Daily Summary

Daily Weather History Graph

Daily Weather History Graph

Search for Another Location

Airport:

Trip Planner

Search our weather history database for the weather conditions in past years. The results will help you decide how hot, cold, wet, or windy it might be!

Date:

Astronomy

Oct. 06, 2012 Rise Set
Actual Time 6:56 AM MDT 6:23 PM MDT
Civil Twilight 6:27 AM MDT 6:52 PM MDT
Nautical Twilight 5:54 AM MDT 7:25 PM MDT
Astronomical Twilight 5:20 AM MDT 7:59 PM MDT
Moon 10:31 PM MDT (10/6) 1:02 PM MDT (10/6)
Length of Visible Light 12h 24m
Length of Day
11h 26m
Waning Gibbous, 65% of the Moon is Illuminated
Oct 6
Waning Gibbous
Oct 8
Last Quarter
Oct 15
New
Oct 21
First Quarter
Oct 29
Full

Hourly Weather History & Observations

Time (MDT) Temp. Windchill Dew Point Humidity Pressure Visibility Wind Dir Wind Speed Gust Speed Precip Events Conditions
12:55 AM 33.3 °F 25.1 °F 20.1 °F 59% 30.45 in 10.0 mi North 10.4 mph - N/A   Overcast
1:55 AM 33.3 °F 26.4 °F 18.7 °F 55% 30.45 in 10.0 mi NNW 8.1 mph - N/A   Overcast
2:55 AM 32.4 °F 26.0 °F 23.0 °F 68% 30.45 in 10.0 mi WNW 6.9 mph - N/A   Overcast
3:55 AM 32.2 °F 25.0 °F 23.0 °F 69% 30.44 in 10.0 mi NNW 8.1 mph - N/A   Overcast
4:55 AM 32.2 °F 24.4 °F 22.5 °F 67% 30.44 in 10.0 mi NNW 9.2 mph - N/A   Overcast
5:55 AM 31.1 °F 24.5 °F 23.2 °F 72% 30.45 in 10.0 mi North 6.9 mph - N/A   Overcast
6:25 AM 30.2 °F 24.3 °F 23.0 °F 75% 30.46 in 10.0 mi North 5.8 mph - N/A   Mostly Cloudy
6:35 AM 30.2 °F 24.3 °F 23.0 °F 75% 30.47 in 10.0 mi North 5.8 mph - N/A   Overcast
6:55 AM 30.6 °F 24.7 °F 22.6 °F 72% 30.46 in 10.0 mi North 5.8 mph - 0.00 in   Overcast
7:55 AM 30.4 °F 24.5 °F 21.6 °F 70% 30.48 in 10.0 mi North 5.8 mph - N/A   Clear
8:55 AM 33.4 °F 26.6 °F 21.7 °F 62% 30.48 in 10.0 mi NNW 8.1 mph - N/A   Clear
9:55 AM 36.7 °F 28.4 °F 19.6 °F 50% 30.46 in 10.0 mi North 12.7 mph - N/A   Clear
10:55 AM 37.6 °F 30.0 °F 19.4 °F 48% 30.46 in 10.0 mi NW 11.5 mph 16.1 mph N/A   Scattered Clouds
11:55 AM 39.9 °F 33.4 °F 16.3 °F 38% 30.45 in 10.0 mi NNW 10.4 mph - N/A   Clear
12:55 PM 41.4 °F 35.2 °F 15.4 °F 35% 30.42 in 10.0 mi North 10.4 mph - N/A   Clear
1:55 PM 42.6 °F 39.9 °F 13.8 °F 31% 30.39 in 10.0 mi North 4.6 mph - N/A   Clear
2:55 PM 43.3 °F 40.7 °F 14.0 °F 31% 30.37 in 10.0 mi ENE 4.6 mph - N/A   Clear
3:55 PM 44.6 °F - 13.6 °F 29% 30.35 in 10.0 mi Calm Calm - N/A   Partly Cloudy
4:55 PM 43.9 °F 41.3 °F 15.1 °F 31% 30.34 in 10.0 mi Variable 4.6 mph - N/A   Mostly Cloudy
5:55 PM 41.9 °F 38.2 °F 18.1 °F 38% 30.32 in 10.0 mi SSW 5.8 mph - N/A   Partly Cloudy
6:55 PM 38.1 °F - 20.1 °F 48% 30.34 in 10.0 mi Calm Calm - N/A   Clear
7:55 PM 36.0 °F 31.1 °F 19.9 °F 52% 30.33 in 10.0 mi SW 5.8 mph - N/A   Clear
8:55 PM 32.5 °F 27.1 °F 19.2 °F 58% 30.32 in 10.0 mi West 5.8 mph - N/A   Clear
9:55 PM 31.3 °F 24.7 °F 20.7 °F 65% 30.30 in 10.0 mi WSW 6.9 mph - N/A   Clear
10:55 PM 30.0 °F 23.2 °F 20.7 °F 68% 30.28 in 10.0 mi WSW 6.9 mph - N/A   Clear
11:55 PM 27.9 °F 19.8 °F 17.4 °F 65% 30.26 in 10.0 mi WSW 8.1 mph - N/A   Clear